Lexington Weather

Lexington, Massachusetts, USA

54°F
12/10/2019 4:36pm 
  • Lexington Conditions: Light rain, Overcast
  • Temperature: 54.0°F / 12.2°CColder 0.5°F than last hour.
  • Dew Point: 52.5°FDecreased 0.4°Fsince last hour.
  • Relative Humidity: 95%Increased 1.0% since last hour.
  • Wind: Wind from WSW WSW 1 mph, 10-min avg: 3 mph, gust: 11 mph
  • Barometer: 29.71 inRising 0.03  inHg/hr Rising Slowly
  • Visibility: 10 miles
  • Rain Today: 0.05 in
  •   

Regional Weather Roundup
for Boston / Norton, MA

        
000
ASUS41 KBOX 100800
RWRBOX

REGIONAL WEATHER ROUNDUP
NATIONAL WEATHER SERVICE BOSTON/NORTON MA
300 AM EST TUE DEC 10 2019

NOTE:  "FAIR" INDICATES FEW OR NO CLOUDS BELOW 12,000 FEET WITH NO 
SIGNIFICANT WEATHER AND/OR OBSTRUCTIONS TO VISIBILITY.

MAZALL-100900-
EASTERN MASSACHUSETTS
  
CITY           SKY/WX    TMP DP  RH WIND       PRES   REMARKS
BOSTON         CLOUDY    59  54  82 SW20G26   29.68S                  
BEVERLY        CLOUDY    57  53  86 SW13G23   29.66R                  
LAWRENCE       CLOUDY    53  51  93 SW9       29.67S                  
BEDFORD        CLOUDY    55  51  86 SW12      29.67R                  
BLUE HILL        N/A     54  53  97 SW21G32   29.67S                  
NORWOOD        CLOUDY    60  53  77 SW12G21   29.69R                  
MARSHFIELD     NOT AVBL                                               
PLYMOUTH       LGT RAIN  57  55  93 SW20G29   29.73S                  
TAUNTON        CLOUDY    57  54  89 S9G24     29.73S                  
NEW BEDFORD    LGT RAIN  57  32  38 SW16G31   29.74F                  
$$

MAZALL-100900-
CAPE COD AND THE ISLANDS
  
CITY           SKY/WX    TMP DP  RH WIND       PRES   REMARKS
FALMOUTH       CLOUDY    57  57 100 SW28G40   29.75S FOG              
HYANNIS        NOT AVBL                                               
CHATHAM        LGT RAIN  51  51 100 SW12G25   29.78F FOG              
PROVINCETOWN   LGT RAIN  53  53 100 SW21G30   29.74S                  
NANTUCKET      CLOUDY    53  51  93 S17       29.81S                  
MARTHAS VNYRD  LGT RAIN  55  54  96 SW20G26   29.78F FOG              
$$
 
MAZALL-100900-
CENTRAL AND WESTERN MASSACHUSETTS
  
CITY           SKY/WX    TMP DP  RH WIND       PRES   REMARKS
WORCESTER      CLOUDY    50  48  93 SW17G28   29.69R                  
FITCHBURG      NOT AVBL                                               
ORANGE         CLOUDY    49  46  90 S15       29.67R                  
SPRINGFIELD    CLOUDY    46  46 100 S10       29.69R                  
WESTFIELD      CLOUDY    50  47  89 S8        29.69R                  
NORTH ADAMS    CLOUDY    43  41  93 CALM      29.65S                  
PITTSFIELD     CLOUDY    48  45  89 S12G17    29.66R                  
$$
 
RIZALL-100900-
RHODE ISLAND
  
CITY           SKY/WX    TMP DP  RH WIND       PRES   REMARKS
PROVIDENCE     CLOUDY    57  54  89 SW18      29.74R                  
NEWPORT        LGT RAIN  55  53  93 SW9G20    29.75S FOG              
BLOCK ISLAND   CLOUDY    54  53  97 SW20G29   29.77S FOG              
SMITHFIELD     CLOUDY    54  54 100 SW12G20   29.72R                  
WESTERLY       CLOUDY    55  51  86 SW8       29.77R                  
$$
 
CTZALL-100900-
CONNECTICUT
  
CITY           SKY/WX    TMP DP  RH WIND       PRES   REMARKS
BRADLEY INTL   CLOUDY    47  47 100 S7        29.70R                  
HARTFORD       CLOUDY    55  51  86 S7        29.72R                  
BRIDGEPORT     CLOUDY    51  49  92 W9        29.75R                  
DANBURY        CLOUDY    53  50  89 SW15G25   29.73S                  
GROTON         NOT AVBL                                               
NEW HAVEN      CLOUDY    54  51  90 SW8       29.75R                  
CHESTER        CLOUDY    54  54 100 SW9G16    29.75R                  
MERIDEN        CLOUDY    55  51  86 S13G20    29.72R                  
WILLIMANTIC    CLOUDY    55  53  93 SW8       29.74R                  
OXFORD         CLOUDY    52  51  97 SW9       29.73R                  
$$

MEZ002-015-021-024-NHZ003-005-008-011-012-014-VTZ005-008-100900-
NORTHERN NEW ENGLAND
  
CITY           SKY/WX    TMP DP  RH WIND       PRES   REMARKS
PORTLAND ME    MOCLDY    55  50  83 SW9       29.60S                  
BANGOR ME      CLOUDY    55  51  86 SW14G22   29.55R                  
CONCORD NH     CLOUDY    51  47  86 S10       29.62R                  
MANCHESTER NH  CLOUDY    51  49  92 S7        29.63R                  
NASHUA NH      CLOUDY    52  52 100 VRB5      29.66R                  
PORTSMOUTH NH  CLOUDY    51  51 100 SW12G20   29.61R                  
JAFFREY NH     CLOUDY    49  47  93 S13       29.66R                  
KEENE NH       CLOUDY    49  47  93 S9        29.65S                  
BURLINGTON VT  MOCLDY    50  45  83 S16G30    29.51R                  
MT. WASHINGTON LGT RAIN  32  32 100 W59G68      N/A  VSB 0   WCI  13  
$$

NYZ052-076-100900-
EASTERN NEW YORK
  
CITY           SKY/WX    TMP DP  RH WIND       PRES   REMARKS
ALBANY         CLOUDY    47  43  86 S10       29.65R                  
NEW YORK CITY  CLOUDY    57  52  83 SW14      29.75R                  
$$
 
ANZALL-100900-
MARINE OBSERVATIONS
  
STATION/POSITION TIME  TEMP    WIND        PRES    VSBY  WAVE
                       AIR SEA DIR/SP/G                  HT/PER
                 (UTC) (F)     (DEG/KT/KT) (MB)    (MI)  (FT/S)
BOSTON BUOY      0650   55 48  200/ 19/ 23 1004.2          4/ 5
BUZZARDS BAY     0700   55     210/ 28/ 30 1007.8R
NANTUCKET SOUND  0650   51                   N/A
MASS BAY-STELLWA 0704   52 46  230/ 17/ 19 1002.9R  1 7/8  5/ 5
ISLE OF SHOALS   0700   54     220/ 26/ 27 1002.9R
S OF BLOCK IS    0730      53                N/A          13/11
$$

......................KEY.........................
  SKY/WX - SKY CONDITION/PRESENT WEATHER
  TMP    - TEMPERATURE IN FAHRENHEIT
  DWPT   - DEWPOINT IN FAHRENHEIT
  RH     - RELATIVE HUMIDITY IN PERCENT
  WIND   - DIRECTION AND SPEED IN MPH
  PRES   - MEAN SEA LEVEL PRESSURE IN INCHES OF HG
  WCI    - WIND CHILL INDEX
  VSB    - VISIBILITY IN MILES
  HX     - HEAT INDEX
  TC     - TEMPERATURE IN CELSIUS
  VRB    - VARIABLE WIND DIRECTION
  N/A    - NOT AVAILABLE
  
      

Other recent Regional Weather Roundups

Tue Dec 10, 4:10pm

Tue Dec 10, 4:01pm

Tue Dec 10, 3:10pm

Tue Dec 10, 3:01pm

Tue Dec 10, 2:10pm

Tue Dec 10, 2:01pm

Tue Dec 10, 1:10pm

Tue Dec 10, 1:00pm

Tue Dec 10, 12:10pm

Tue Dec 10, 12:00pm

Tue Dec 10, 11:10am

Tue Dec 10, 11:00am

Tue Dec 10, 10:10am

Tue Dec 10, 10:00am

Tue Dec 10, 9:10am

Tue Dec 10, 9:01am

Tue Dec 10, 8:10am

Tue Dec 10, 8:00am

Tue Dec 10, 7:10am

Tue Dec 10, 7:00am

Tue Dec 10, 6:10am

Tue Dec 10, 6:00am

Tue Dec 10, 5:10am

Tue Dec 10, 5:00am

Tue Dec 10, 4:10am

Tue Dec 10, 4:00am

Tue Dec 10, 3:10am

Tue Dec 10, 2:10am

Tue Dec 10, 2:01am

Tue Dec 10, 1:10am

Tue Dec 10, 1:00am

Tue Dec 10, 12:10am

Tue Dec 10, 12:01am

Mon Dec 9, 11:10pm

Mon Dec 9, 11:01pm

Mon Dec 9, 10:10pm

Mon Dec 9, 10:00pm

Mon Dec 9, 9:10pm

Mon Dec 9, 9:01pm

Mon Dec 9, 8:10pm

Mon Dec 9, 8:01pm

Mon Dec 9, 7:10pm

Mon Dec 9, 7:00pm

Mon Dec 9, 6:10pm

Mon Dec 9, 6:00pm

Mon Dec 9, 5:10pm

Mon Dec 9, 5:01pm

Mon Dec 9, 4:10pm

Mon Dec 9, 4:01pm

Mon Dec 9, 3:10pm

Mon Dec 9, 3:01pm

Mon Dec 9, 2:10pm

Mon Dec 9, 2:00pm

Mon Dec 9, 1:10pm

Mon Dec 9, 1:00pm

Mon Dec 9, 12:10pm

Mon Dec 9, 12:00pm

Mon Dec 9, 11:10am

Mon Dec 9, 11:00am

Mon Dec 9, 10:10am

Mon Dec 9, 10:00am

Mon Dec 9, 9:10am

Mon Dec 9, 9:00am

Mon Dec 9, 8:10am

Mon Dec 9, 8:00am

Mon Dec 9, 7:10am

Mon Dec 9, 7:00am

Mon Dec 9, 6:10am

Mon Dec 9, 6:00am

Mon Dec 9, 5:10am

Mon Dec 9, 5:00am

Mon Dec 9, 4:10am

Mon Dec 9, 4:00am

Mon Dec 9, 3:10am

Mon Dec 9, 3:00am

Mon Dec 9, 2:10am

Mon Dec 9, 2:00am

Mon Dec 9, 1:10am

Mon Dec 9, 1:00am

Mon Dec 9, 12:10am

Mon Dec 9, 12:00am

Sun Dec 8, 11:10pm

Sun Dec 8, 11:00pm

Sun Dec 8, 10:10pm

Sun Dec 8, 10:01pm

Sun Dec 8, 9:10pm

Sun Dec 8, 9:01pm

Sun Dec 8, 8:10pm

Sun Dec 8, 8:00pm

Sun Dec 8, 7:10pm

Sun Dec 8, 7:00pm

Sun Dec 8, 6:10pm

Sun Dec 8, 6:01pm

Sun Dec 8, 5:10pm

Sun Dec 8, 5:00pm

Sun Dec 8, 4:10pm

Sun Dec 8, 4:01pm

Sun Dec 8, 3:10pm

Sun Dec 8, 3:01pm

Sun Dec 8, 2:10pm

Sun Dec 8, 2:01pm

Sun Dec 8, 1:10pm

Sun Dec 8, 1:00pm

Sun Dec 8, 12:10pm

Sun Dec 8, 12:01pm

Sun Dec 8, 11:10am

Sun Dec 8, 11:00am

Sun Dec 8, 10:10am

Sun Dec 8, 10:01am

Sun Dec 8, 9:10am

Sun Dec 8, 9:00am

Sun Dec 8, 8:10am

Sun Dec 8, 8:00am

Sun Dec 8, 7:10am

Sun Dec 8, 7:00am

Sun Dec 8, 6:10am

Sun Dec 8, 6:00am

Sun Dec 8, 5:10am

Sun Dec 8, 5:00am

Sun Dec 8, 4:10am

Sun Dec 8, 4:00am

Sun Dec 8, 3:10am

Sun Dec 8, 3:00am

Sun Dec 8, 2:10am

Sun Dec 8, 2:00am

Sun Dec 8, 1:10am

Sun Dec 8, 1:00am

Sun Dec 8, 12:10am

Sun Dec 8, 12:01am

Sat Dec 7, 11:10pm

Sat Dec 7, 11:00pm

Sat Dec 7, 10:10pm

Sat Dec 7, 10:00pm

Sat Dec 7, 9:10pm

Sat Dec 7, 9:00pm

Sat Dec 7, 8:10pm

Sat Dec 7, 8:00pm

Sat Dec 7, 7:10pm

Sat Dec 7, 7:00pm

Sat Dec 7, 6:10pm

Sat Dec 7, 6:00pm

Sat Dec 7, 5:10pm

Sat Dec 7, 5:00pm

Meta data:

ID: 27c9e9af-08ce-46cb-be5d-607fe15ca97f
Link: https://api.weather.gov/products/27c9e9af-08ce-46cb-be5d-607fe15ca97f